Location: Lone Wolf Observatory
(41.0360°N, 89.2260°W)
Time: 13:48:30
(UTC-06:00)

Amateur Radio Satellites - All Passes

Search period start: 21 January 2017 13:18
Search period end: 22 January 2017 13:18
Location: Lone Wolf Observatory, 41.0360°N, 89.2260°W

Satellite Date Start Highest point End Downlink Frequencies (MHz)
Time Altitude Azimuth
SPROUT 21 Jan 13:21:36 13:24:55 22° 293° (WNW) 13:28:14 437.525
50 SAT 21 Jan 13:22:35 13:24:44 15° 293° (WNW) 13:26:51 437.505
UKube-1 21 Jan 13:25:47 13:29:53 43° 289° (WNW) 13:33:57 .
DX 1 21 Jan 13:29:10 13:32:57 30° 291° (WNW) 13:36:43 434.975-435.025
ITAMSAT 1 21 Jan 13:33:38 13:38:15 34° 68° (ENE) 13:42:54 435.822/435.867
AIST 1 21 Jan 13:43:47 13:48:10 88° 283° (WNW) 13:52:32
ITUPSAT 1 21 Jan 13:48:03 13:51:31 19° 93° (E) 13:54:58 437.325
Cosmos 2504 21 Jan 13:50:46 13:58:35 39° 87° (E) 14:06:00 435.465 / 435.565
CUSAT 1 21 Jan 13:51:29 13:59:33 85° 80° (E) 14:06:52 437.405
AO-85 21 Jan 13:54:10 13:58:50 59° 305° (NW) 14:03:09 145.980
O/OREOS (USA 219) 21 Jan 14:13:07 14:13:36 10° 49° (NE) 14:14:05 437.305
BEESAT 21 Jan 14:21:06 14:25:40 43° 99° (E) 14:30:12 436.000
SWISSCUBE 21 Jan 14:22:48 14:27:28 50° 100° (E) 14:32:07 437.505
BRITE-PL 21 Jan 14:33:22 14:36:02 14° 60° (ENE) 14:38:41 437.365/2234.400
TISAT 1 21 Jan 14:45:43 14:48:39 19° 294° (WNW) 14:51:34 437.305
AO-7 21 Jan 14:50:19 14:58:41 76° 254° (WSW) 15:07:06 29.400- 29.500
DANDE 21 Jan 14:51:52 14:59:49 88° 82° (E) 15:08:12 436.750
SO-50 21 Jan 15:02:49 15:06:12 20° 43° (NE) 15:09:33 436.795
Cosmos 2491 21 Jan 15:11:50 15:17:02 17° 283° (WNW) 15:22:15 435.465 / 435.565
ITAMSAT 1 21 Jan 15:13:18 15:17:43 29° 264° (W) 15:22:11 435.822/435.867
YUBILEINY 21 Jan 15:15:03 15:23:12 41° 287° (WNW) 15:31:26 435.215
BEESAT 2 21 Jan 15:16:19 15:18:08 13° 109° (ESE) 15:19:59 435.950
ITUPSAT 1 21 Jan 15:24:58 15:29:33 44° 289° (WNW) 15:34:06 437.325
CUSAT 1 21 Jan 15:35:07 15:40:25 20° 280° (W) 15:45:27 437.405
AUBIESAT-1 21 Jan 15:36:14 15:38:05 14° 98° (E) 15:39:54 437.475
MOZHAYETS 4 21 Jan 15:43:18 15:47:59 84° 285° (WNW) 15:52:38
Cosmos 2504 21 Jan 15:43:40 15:51:50 45° 285° (WNW) 15:59:35 435.465 / 435.565
NOAA 15 21 Jan 15:44:08 15:45:38 11° 57° (ENE) 15:47:08 137.62
O/OREOS (USA 219) 21 Jan 15:49:12 15:53:43 85° 68° (ENE) 15:58:15 437.305
BEESAT 21 Jan 15:59:34 16:03:08 21° 295° (WNW) 16:06:42 436.000
SWISSCUBE 21 Jan 16:01:35 16:04:52 19° 296° (WNW) 16:08:08 437.505
BEESAT 3 21 Jan 16:04:00 16:07:52 75° 303° (WNW) 16:11:50 437.485
GOMX 1 21 Jan 16:06:37 16:11:30 37° 70° (ENE) 16:16:12 467.674
BRITE-PL 21 Jan 16:07:59 16:13:41 87° 78° (ENE) 16:19:20 437.365/2234.400
KKS-1 21 Jan 16:14:11 16:18:36 63° 102° (ESE) 16:22:58 437.445
HORYU 2 21 Jan 16:21:33 16:25:51 56° 73° (ENE) 16:30:11 437.375
LilacSat-2 21 Jan 16:29:12 16:32:00 20° 68° (ENE) 16:34:49 437.200
CUTE-I 21 Jan 16:32:17 16:36:47 29° 66° (ENE) 16:41:18 437.470
CUBESAT XI-V 21 Jan 16:32:24 16:36:58 48° 99° (E) 16:41:27 437.345
M-CUBED/EXP-1 PRIME 21 Jan 16:33:49 16:37:08 67° 290° (WNW) 16:40:21 437.505
DANDE 21 Jan 16:36:17 16:41:42 20° 277° (W) 16:47:20 436.750
DOVE 4 21 Jan 16:39:58 16:44:15 30° 70° (ENE) 16:48:20 437.250
SO-50 21 Jan 16:42:35 16:46:59 53° 242° (WSW) 16:51:18 436.795
AO-7 21 Jan 16:48:49 16:52:42 14° 272° (W) 16:56:38 29.400- 29.500
BEESAT 2 21 Jan 16:51:35 16:55:27 53° 306° (NW) 16:59:23 435.950
STARS 21 Jan 17:03:52 17:08:15 82° 284° (WNW) 17:12:37 437.465
HO-68 21 Jan 17:04:12 17:08:56 19° 55° (NE) 17:13:39 435.675
AUBIESAT-1 21 Jan 17:09:41 17:12:37 28° 295° (WNW) 17:15:29 437.475
Cubesat XI-IV 21 Jan 17:14:57 17:20:13 69° 73° (ENE) 17:25:31 437.490
NOAA 15 21 Jan 17:19:14 17:24:31 81° 75° (ENE) 17:29:52 137.62
NOAA 18 21 Jan 17:29:43 17:35:04 54° 71° (ENE) 17:40:24 137.9125
GOMX 1 21 Jan 17:44:59 17:49:33 28° 265° (W) 17:54:00 467.674
BRITE-PL 21 Jan 17:50:20 17:52:44 13° 272° (W) 17:55:08 437.365/2234.400
CANX-2 21 Jan 17:50:38 17:53:56 22° 68° (ENE) 17:57:16 2200.000
KKS-1 21 Jan 17:52:33 17:54:37 13° 298° (WNW) 17:56:41 437.445
CINEMA 3 21 Jan 17:59:11 18:03:20 42° 73° (ENE) 18:07:22 145.822/145.860
SEEDS 21 Jan 17:59:40 18:02:18 16° 65° (ENE) 18:04:57 437.485
HORYU 2 21 Jan 18:00:40 18:02:45 13° 269° (W) 18:04:50 437.375
Cosmos 2499 21 Jan 18:01:54 18:08:04 24° 83° (E) 18:13:56 435.465 / 435.565
LilacSat-2 21 Jan 18:02:53 18:06:07 27° 264° (W) 18:09:23 437.200
COMPASS 1 21 Jan 18:03:44 18:05:15 12° 63° (ENE) 18:06:45 437.405
GONETS M04 21 Jan 18:08:15 18:14:18 21° 79° (E) 18:20:22
CUBESAT XI-V 21 Jan 18:10:47 18:13:57 18° 295° (WNW) 18:17:04 437.345
CUTE-I 21 Jan 18:11:50 18:16:41 36° 263° (W) 18:21:34 437.470
AAUSAT CUBESAT 2 21 Jan 18:13:43 18:15:09 12° 63° (ENE) 18:16:33 437.432
DOVE 4 21 Jan 18:17:33 18:21:51 29° 264° (W) 18:26:01 437.250
CUBEBUG 2 21 Jan 18:45:15 18:48:53 30° 70° (ENE) 18:52:31 437.445
HO-68 21 Jan 18:48:30 18:55:43 88° 254° (WSW) 19:02:58 435.675
STRAND 1 21 Jan 18:49:27 18:54:13 37° 98° (E) 18:58:57 437.568
CUTE 1.7 + AOD 2 21 Jan 18:55:41 18:59:55 81° 257° (WSW) 19:04:13 437.475
Cubesat XI-IV 21 Jan 18:57:56 19:00:47 15° 270° (W) 19:03:38 437.490
AIST 2 21 Jan 19:01:03 19:05:07 70° 120° (ESE) 19:09:17 435.215
NOAA 15 21 Jan 19:02:50 19:04:54 12° 271° (W) 19:06:58 137.62
FUNcube-1 21 Jan 19:03:28 19:06:08 17° 65° (ENE) 19:08:49 145.935
UWE-3 21 Jan 19:10:32 19:14:20 36° 71° (ENE) 19:18:08 435.000/436.395/437.385
NOAA 18 21 Jan 19:12:06 19:16:02 20° 267° (W) 19:19:58 137.9125
CANX-2 21 Jan 19:25:49 19:29:36 31° 264° (W) 19:33:27 2200.000
ZACube-1 21 Jan 19:26:12 19:29:52 32° 70° (ENE) 19:33:35 437.345
SEEDS 21 Jan 19:33:35 19:37:37 44° 262° (W) 19:41:42 437.485
COMPASS 1 21 Jan 19:36:04 19:40:14 64° 260° (W) 19:44:26 437.405
CINEMA 3 21 Jan 19:37:53 19:40:39 16° 267° (W) 19:43:22 145.822/145.860
AAUSAT CUBESAT 2 21 Jan 19:45:54 19:50:02 65° 259° (WSW) 19:54:13 437.432
Cosmos 2499 21 Jan 19:52:08 20:00:31 69° 279° (W) 20:08:20 435.465 / 435.565
Oscar 11 21 Jan 19:59:13 20:03:29 66° 76° (ENE) 20:07:48 145.826/435.025
GONETS M04 21 Jan 20:01:21 20:10:03 78° 279° (W) 20:18:52
CUBEBUG 2 21 Jan 20:22:23 20:25:33 21° 266° (W) 20:28:43 437.445
STRAND 1 21 Jan 20:28:56 20:33:13 27° 294° (WNW) 20:37:29 437.568
FUNcube-1 21 Jan 20:38:10 20:42:03 39° 262° (W) 20:45:58 145.935
HO-68 21 Jan 20:40:28 20:44:20 15° 271° (W) 20:48:13 435.675
AIST 2 21 Jan 20:41:38 20:44:04 15° 319° (NW) 20:46:32 435.215
AO-85 21 Jan 20:46:54 20:48:46 13° 40° (NE) 20:50:37 145.980
UWE-3 21 Jan 20:48:08 20:50:55 17° 267° (W) 20:53:43 435.000/436.395/437.385
DELFI C3 21 Jan 20:50:10 20:54:10 83° 75° (ENE) 20:58:12 145.870
ANTELSAT 21 Jan 20:53:04 20:54:30 11° 90° (E) 20:55:57 437.575/2403.000
HUMSAT D 21 Jan 20:59:37 21:03:37 56° 74° (ENE) 21:07:42 437.325/437.525
ZACube-1 21 Jan 21:03:11 21:06:14 20° 267° (W) 21:09:18 437.345
PRISM 21 Jan 21:08:02 21:12:04 52° 100° (E) 21:16:03 437.425
ISS 21 Jan 21:25:34 21:28:46 57° 140° (SE) 21:31:59 145.825
CUBEBUG 1 21 Jan 21:31:11 21:31:49 10° 61° (ENE) 21:32:27 437.445
JAS-2 21 Jan 21:32:42 21:37:40 19° 90° (E) 21:42:48 435.910
Oscar 11 21 Jan 21:39:10 21:40:03 11° 271° (W) 21:40:56 145.826/435.025
AISAT 21 Jan 21:50:46 21:52:12 11° 61° (ENE) 21:53:39 437.250
Cosmos 2499 21 Jan 21:51:49 21:55:03 13° 300° (WNW) 21:58:14 435.465 / 435.565
UNISAT 6 21 Jan 21:58:38 22:03:03 61° 101° (E) 22:07:33 437.425
GONETS M04 21 Jan 22:03:34 22:08:29 16° 301° (WNW) 22:13:26
BY70-1 21 Jan 22:03:50 22:06:51 77° 78° (ENE) 22:10:07 436.1900
TIGRISAT 21 Jan 22:11:28 22:15:56 78° 102° (ESE) 22:20:29 435.000
ESTCUBE 1 21 Jan 22:16:02 22:20:27 53° 72° (ENE) 22:24:52 437.505/2401.250
VELOX 1 21 Jan 22:21:43 22:25:12 23° 67° (ENE) 22:28:40 145.980
50 SAT 21 Jan 22:24:15 22:26:09 14° 66° (ENE) 22:28:04 437.505
AO-85 21 Jan 22:25:45 22:29:39 72° 239° (WSW) 22:33:32 145.980
ANTELSAT 21 Jan 22:27:10 22:31:36 67° 285° (WNW) 22:36:06 437.575/2403.000
RS-15 21 Jan 22:35:35 22:46:49 54° 111° (ESE) 22:58:31 29.354- 29.394
HUMSAT D 21 Jan 22:38:13 22:39:35 11° 270° (W) 22:40:59 437.325/437.525
SPROUT 21 Jan 22:38:52 22:42:16 24° 68° (ENE) 22:45:41 437.525
PCSat 21 Jan 22:39:31 22:40:29 10° 101° (ESE) 22:41:26 145.827
PRISM 21 Jan 22:44:52 22:46:54 13° 297° (WNW) 22:48:55 437.425
UKube-1 21 Jan 22:45:52 22:48:16 15° 63° (ENE) 22:50:39 .
DX 1 21 Jan 22:48:50 22:52:09 21° 66° (ENE) 22:55:28 434.975-435.025
ISS 21 Jan 23:02:45 23:05:27 23° 338° (NNW) 23:08:09 145.825
CUBEBUG 1 21 Jan 23:03:00 23:07:26 81° 259° (W) 23:11:50 437.445
QB50P1 21 Jan 23:07:34 23:11:20 31° 97° (E) 23:15:05 145.935-145.965
POLYITAN 1 21 Jan 23:12:08 23:16:02 35° 98° (E) 23:19:56 437.675
QB50P2 21 Jan 23:13:23 23:17:22 39° 98° (E) 23:21:21 145.880/145.840
JAS-2 21 Jan 23:15:58 23:23:15 85° 285° (WNW) 23:31:05 435.910
AISAT 21 Jan 23:23:36 23:28:03 74° 258° (WSW) 23:32:30 437.250
YUBILEINY 21 Jan 23:28:59 23:35:27 22° 64° (ENE) 23:41:50 435.215
BEESAT 2 21 Jan 23:33:35 23:34:53 11° 39° (NE) 23:36:10 435.950
POPSAT HIP 1 21 Jan 23:34:20 23:38:32 62° 101° (E) 23:42:43 437.405
UNISAT 6 21 Jan 23:37:02 23:39:17 14° 297° (WNW) 23:41:33 437.425
DUCHIFAT 1 21 Jan 23:43:07 23:47:18 68° 101° (E) 23:51:29 145.980
Cosmos 2504 21 Jan 23:47:06 23:48:35 11° 57° (ENE) 23:50:04 435.465 / 435.565
NANOSAT C BR1 21 Jan 23:49:30 23:53:44 88° 92° (E) 23:57:58 145.865
TIGRISAT 21 Jan 23:50:50 23:52:00 11° 298° (WNW) 23:53:11 435.000
AIST 1 21 Jan 23:51:33 23:54:52 22° 73° (ENE) 23:58:09
ESTCUBE 1 21 Jan 23:55:01 23:57:32 15° 269° (W) 00:00:05 437.505/2401.250
50 SAT 21 Jan 23:55:43 23:59:02 36° 262° (W) 00:02:23 437.505
VELOX 1 21 Jan 23:57:25 00:01:28 34° 263° (W) 00:05:30 145.980
TISAT 1 22 Jan 00:00:57 00:04:29 27° 69° (ENE) 00:08:00 437.305
BUGSAT 1 22 Jan 00:11:14 00:15:10 47° 100° (E) 00:19:05 437.445
SPROUT 22 Jan 00:14:22 00:18:04 29° 264° (W) 00:21:47 437.525
PCSat 22 Jan 00:17:34 00:22:59 85° 118° (ESE) 00:28:26 145.827
UKube-1 22 Jan 00:19:38 00:23:51 53° 259° (W) 00:28:06 .
Cosmos 2491 22 Jan 00:20:05 00:26:07 21° 79° (E) 00:32:09 435.465 / 435.565
BEESAT 3 22 Jan 00:20:55 00:24:53 58° 56° (NE) 00:28:49 437.485
DX 1 22 Jan 00:24:07 00:28:06 35° 262° (W) 00:32:08 434.975-435.025
ISS 22 Jan 00:41:14 00:42:49 13° 358° (N) 00:44:23 145.825
QB50P1 22 Jan 00:43:39 00:46:55 22° 293° (WNW) 00:50:11 145.935-145.965
RS-15 22 Jan 00:47:50 00:59:25 52° 315° (NW) 01:11:28 29.354- 29.394
POLYITAN 1 22 Jan 00:48:30 00:51:36 20° 293° (WNW) 00:54:41 437.675
QB50P2 22 Jan 00:49:58 00:52:52 18° 294° (WNW) 00:55:46 145.880/145.840
ITUPSAT 1 22 Jan 00:54:43 00:58:26 23° 65° (ENE) 01:02:10 437.325
Oscar 19 22 Jan 00:59:35 01:04:27 41° 98° (E) 01:09:17 437.125/150
JAS-2 22 Jan 01:02:47 01:07:23 18° 302° (WNW) 01:12:12 435.910
BEESAT 2 22 Jan 01:09:15 01:13:19 83° 56° (NE) 01:17:21 435.950
POPSAT HIP 1 22 Jan 01:12:06 01:13:47 12° 297° (WNW) 01:15:28 437.405
CUSAT 1 22 Jan 01:15:41 01:16:51 11° 74° (ENE) 01:18:04 437.405
PHONESAT 2.4 22 Jan 01:20:27 01:22:31 31° 162° (SSE) 01:24:34 2401.200-2431.200
DUCHIFAT 1 22 Jan 01:21:09 01:22:24 11° 298° (WNW) 01:23:40 145.980
YUBILEINY 22 Jan 01:24:29 01:33:19 82° 265° (W) 01:42:04 435.215
Gurwin Techsat 1B 22 Jan 01:26:56 01:31:55 40° 98° (E) 01:36:52 435.225
BEESAT 22 Jan 01:27:11 01:31:44 48° 71° (ENE) 01:36:20 436.000
AIST 1 22 Jan 01:28:46 01:32:27 29° 270° (W) 01:36:07
SWISSCUBE 22 Jan 01:28:54 01:33:32 57° 73° (ENE) 01:38:14 437.505
Cosmos 2504 22 Jan 01:36:17 01:43:39 67° 80° (E) 01:50:44 435.465 / 435.565
TISAT 1 22 Jan 01:36:39 01:40:04 24° 265° (W) 01:43:28 437.305
M-CUBED/EXP-1 PRIME 22 Jan 01:46:52 01:49:01 14° 60° (ENE) 01:51:06 437.505
BUGSAT 1 22 Jan 01:47:59 01:50:08 14° 295° (WNW) 01:52:16 437.445
ITAMSAT 1 22 Jan 01:48:37 01:50:20 11° 89° (E) 01:52:03 435.822/435.867
BEESAT 3 22 Jan 02:00:22 02:02:00 12° 251° (WSW) 02:03:37 437.485
PCSat 22 Jan 02:03:33 02:07:05 17° 317° (NW) 02:10:39 145.827
Cosmos 2491 22 Jan 02:13:12 02:21:54 78° 279° (W) 02:30:41 435.465 / 435.565
ISS 22 Jan 02:17:48 02:20:15 19° 18° (NNE) 02:22:42 145.825
AUBIESAT-1 22 Jan 02:20:38 02:24:02 24° 64° (ENE) 02:27:16 437.475
ITUPSAT 1 22 Jan 02:31:36 02:36:01 38° 262° (W) 02:40:28 437.325
Oscar 19 22 Jan 02:39:23 02:43:31 25° 295° (WNW) 02:47:39 437.125/150
MOZHAYETS 4 22 Jan 02:44:40 02:49:14 89° 84° (E) 02:53:52
CUSAT 1 22 Jan 02:51:52 02:57:05 81° 98° (E) 03:03:53 437.405
AO-7 22 Jan 02:52:27 03:00:04 37° 98° (E) 03:07:35 29.400- 29.500
PHONESAT 2.4 22 Jan 02:54:04 02:56:19 79° 174° (S) 02:58:33 2401.200-2431.200
RS-15 22 Jan 03:06:25 03:15:52 25° 346° (NNW) 03:25:26 29.354- 29.394
BEESAT 22 Jan 03:06:39 03:09:46 17° 268° (W) 03:12:56 436.000
Gurwin Techsat 1B 22 Jan 03:07:16 03:11:39 27° 295° (WNW) 03:16:01 435.225
SWISSCUBE 22 Jan 03:09:00 03:11:41 15° 269° (W) 03:14:22 437.505
KKS-1 22 Jan 03:11:47 03:16:08 56° 73° (ENE) 03:20:30 437.445
M-CUBED/EXP-1 PRIME 22 Jan 03:18:48 03:23:07 59° 254° (WSW) 03:27:09 437.505
AIST 2 22 Jan 03:22:26 03:26:30 43° 53° (NE) 03:30:34 435.215
YUBILEINY 22 Jan 03:24:05 03:28:36 15° 285° (WNW) 03:33:08 435.215
ITAMSAT 1 22 Jan 03:25:09 03:30:24 82° 285° (WNW) 03:35:37 435.822/435.867
Cosmos 2504 22 Jan 03:31:10 03:36:10 20° 279° (W) 03:41:04 435.465 / 435.565
CUBESAT XI-V 22 Jan 03:35:14 03:39:42 46° 72° (ENE) 03:44:14 437.345
ISS 22 Jan 03:53:50 03:57:05 88° 233° (SW) 04:00:20 145.825
AUBIESAT-1 22 Jan 03:54:37 03:58:19 29° 257° (WSW) 04:01:50 437.475
STARS 22 Jan 03:59:56 04:04:18 86° 76° (ENE) 04:08:42 437.465
DANDE 22 Jan 04:00:56 04:04:51 81° 281° (W) 04:10:13 436.750
BRITE-PL 22 Jan 04:14:25 04:18:28 27° 93° (E) 04:22:15 437.365/2234.400
HORYU 2 22 Jan 04:15:18 04:16:07 10° 90° (E) 04:16:56 437.375
Cosmos 2491 22 Jan 04:15:27 04:20:19 16° 301° (WNW) 04:25:15 435.465 / 435.565
PHONESAT 2.4 22 Jan 04:27:59 04:30:08 42° 194° (SSW) 04:32:18 2401.200-2431.200
CUSAT 1 22 Jan 04:36:39 04:40:14 16° 302° (WNW) 04:44:18 437.405
AO-7 22 Jan 04:45:01 04:52:59 51° 296° (WNW) 05:00:54 29.400- 29.500
KKS-1 22 Jan 04:50:55 04:53:02 13° 269° (W) 04:55:10 437.445
CUTE-I 22 Jan 04:51:52 04:52:53 10° 88° (E) 04:53:56 437.470
AIST 2 22 Jan 05:01:43 05:04:40 18° 249° (WSW) 05:07:35 435.215
ITAMSAT 1 22 Jan 05:07:33 05:09:00 11° 303° (WNW) 05:10:27 435.822/435.867
CUBESAT XI-V 22 Jan 05:14:08 05:17:18 18° 268° (W) 05:20:31 437.345
RS-15 22 Jan 05:24:03 05:34:10 28° 22° (NNE) 05:44:08 29.354- 29.394
Cubesat XI-IV 22 Jan 05:32:43 05:37:15 27° 95° (E) 05:41:45 437.490
NOAA 15 22 Jan 05:34:56 05:39:35 30° 96° (E) 05:44:11 137.62
LilacSat-2 22 Jan 05:35:44 05:39:11 29° 97° (E) 05:42:36 437.200
Cosmos 2499 22 Jan 05:43:59 05:50:37 39° 74° (ENE) 05:57:07 435.465 / 435.565
GOMX 1 22 Jan 05:46:33 05:50:57 83° 281° (WNW) 05:55:08 467.674
HORYU 2 22 Jan 05:48:40 05:53:08 71° 285° (WNW) 05:57:34 437.375
NOAA 18 22 Jan 05:52:32 05:56:45 22° 94° (E) 06:00:57 137.9125
BRITE-PL 22 Jan 05:52:45 05:56:56 29° 293° (WNW) 06:00:49 437.365/2234.400
O/OREOS (USA 219) 22 Jan 06:01:11 06:05:39 79° 292° (WNW) 06:10:08 437.305
STRAND 1 22 Jan 06:05:06 06:10:01 52° 71° (ENE) 06:14:58 437.568
GONETS M04 22 Jan 06:11:47 06:20:25 54° 77° (ENE) 06:29:00
DOVE 4 22 Jan 06:15:50 06:20:01 77° 102° (ESE) 06:24:09 437.250
HO-68 22 Jan 06:18:09 06:22:39 17° 90° (E) 06:27:06 435.675
CUTE-I 22 Jan 06:28:15 06:33:37 90° 52° (NE) 06:38:59 437.470
AO-7 22 Jan 06:41:15 06:43:46 12° 318° (NW) 06:46:15 29.400- 29.500
CUTE 1.7 + AOD 2 22 Jan 06:41:38 06:44:33 18° 92° (E) 06:47:27 437.475
SO-50 22 Jan 06:56:06 07:00:40 50° 118° (ESE) 07:05:11 436.795
CANX-2 22 Jan 07:10:21 07:14:29 43° 98° (E) 07:18:33 2200.000
LilacSat-2 22 Jan 07:10:27 07:13:15 19° 292° (WNW) 07:16:04 437.200
Cubesat XI-IV 22 Jan 07:12:29 07:17:22 38° 292° (WNW) 07:22:15 437.490
NOAA 15 22 Jan 07:14:34 07:19:20 34° 292° (WNW) 07:24:04 137.62
SEEDS 22 Jan 07:17:33 07:21:17 29° 96° (E) 07:24:58 437.485
COMPASS 1 22 Jan 07:19:36 07:22:44 20° 93° (E) 07:25:50 437.405
PCSat 22 Jan 07:24:09 07:26:31 13° 38° (NE) 07:28:53 145.827
AAUSAT CUBESAT 2 22 Jan 07:28:55 07:31:57 19° 93° (E) 07:34:58 437.432
CINEMA 3 22 Jan 07:30:12 07:34:23 72° 285° (WNW) 07:38:42 145.822/145.860
NOAA 18 22 Jan 07:32:24 07:37:38 47° 290° (WNW) 07:42:50 137.9125
Cosmos 2499 22 Jan 07:37:18 07:43:35 35° 273° (W) 07:49:49 435.465 / 435.565
RS-15 22 Jan 07:37:21 07:49:43 66° 52° (NE) 08:01:34 29.354- 29.394
STRAND 1 22 Jan 07:46:02 07:49:29 18° 268° (W) 07:52:58 437.568
Oscar 11 22 Jan 07:48:24 07:50:15 12° 90° (E) 07:52:06 145.826/435.025
PRISM 22 Jan 07:57:00 08:00:49 36° 71° (ENE) 08:04:40 437.425
HO-68 22 Jan 08:03:55 08:11:08 83° 288° (WNW) 08:18:18 435.675
GONETS M04 22 Jan 08:09:14 08:16:48 34° 276° (W) 08:24:24
CUTE-I 22 Jan 08:10:39 08:12:52 13° 302° (WNW) 08:15:07 437.470
CUBEBUG 2 22 Jan 08:11:23 08:15:45 75° 102° (ESE) 08:20:15 437.445
CUTE 1.7 + AOD 2 22 Jan 08:16:31 08:20:32 39° 288° (WNW) 08:24:30 437.475
FUNcube-1 22 Jan 08:25:36 08:29:41 36° 97° (E) 08:33:50 145.935
DELFI C3 22 Jan 08:30:14 08:30:58 10° 90° (E) 08:31:42 145.870
UWE-3 22 Jan 08:35:32 08:39:57 86° 103° (ESE) 08:44:28 435.000/436.395/437.385
SO-50 22 Jan 08:37:39 08:41:23 23° 315° (NW) 08:45:04 436.795
CANX-2 22 Jan 08:47:10 08:49:59 17° 294° (WNW) 08:52:47 2200.000
ZACube-1 22 Jan 08:49:40 08:54:06 74° 102° (ESE) 08:58:35 437.345
SEEDS 22 Jan 08:53:26 08:56:49 24° 292° (WNW) 09:00:13 437.485
COMPASS 1 22 Jan 08:54:33 08:58:20 33° 289° (WNW) 09:02:06 437.405
UNISAT 6 22 Jan 08:57:22 09:01:28 50° 73° (ENE) 09:05:37 437.425
AAUSAT CUBESAT 2 22 Jan 09:03:43 09:07:30 34° 289° (WNW) 09:11:15 437.432
PCSat 22 Jan 09:05:35 09:11:00 65° 58° (ENE) 09:16:23 145.827
TIGRISAT 22 Jan 09:09:58 09:14:09 65° 74° (ENE) 09:18:22 435.000
Oscar 11 22 Jan 09:22:26 09:26:44 58° 286° (WNW) 09:31:00 145.826/435.025
ANTELSAT 22 Jan 09:25:42 09:29:56 78° 257° (WSW) 09:34:13 437.575/2403.000
JAS-2 22 Jan 09:29:14 09:34:12 39° 67° (ENE) 09:39:39 435.910
PRISM 22 Jan 09:33:21 09:36:13 18° 266° (W) 09:39:07 437.425
CUBEBUG 2 22 Jan 09:50:35 09:51:48 11° 297° (WNW) 09:53:02 437.445
RS-15 22 Jan 09:50:42 10:01:30 39° 254° (WSW) 10:11:57 29.354- 29.394
HO-68 22 Jan 09:53:33 09:57:47 17° 307° (NW) 10:02:02 435.675
QB50P1 22 Jan 10:00:06 10:03:26 23° 68° (ENE) 10:06:45 145.935-145.965
DELFI C3 22 Jan 10:02:12 10:06:08 57° 286° (WNW) 10:10:01 145.870
FUNcube-1 22 Jan 10:02:23 10:05:42 21° 293° (WNW) 10:09:03 145.935
POLYITAN 1 22 Jan 10:04:46 10:08:15 26° 69° (ENE) 10:11:45 437.675
QB50P2 22 Jan 10:05:56 10:09:33 29° 69° (ENE) 10:13:11 145.880/145.840
ESTCUBE 1 22 Jan 10:11:03 10:12:21 11° 89° (E) 10:13:40 437.505/2401.250
HUMSAT D 22 Jan 10:18:08 10:22:25 74° 285° (WNW) 10:26:42 437.325/437.525
POPSAT HIP 1 22 Jan 10:26:28 10:30:26 44° 72° (ENE) 10:34:26 437.405
ZACube-1 22 Jan 10:28:23 10:29:47 11° 298° (WNW) 10:31:11 437.345
DUCHIFAT 1 22 Jan 10:34:33 10:38:32 47° 73° (ENE) 10:42:33 145.980
UNISAT 6 22 Jan 10:36:23 10:38:29 13° 269° (W) 10:40:36 437.425
BY70-1 22 Jan 10:38:34 10:41:37 38° 98° (E) 10:44:27 436.1900
NANOSAT C BR1 22 Jan 10:41:05 10:45:13 62° 74° (ENE) 10:49:21 145.865
PCSat 22 Jan 10:50:23 10:53:49 17° 255° (WSW) 10:57:14 145.827
TIGRISAT 22 Jan 10:50:46 10:51:17 10° 271° (W) 10:51:48 435.000
CUBEBUG 1 22 Jan 10:52:38 10:55:37 18° 93° (E) 10:58:35 437.445
BUGSAT 1 22 Jan 11:00:50 11:04:26 32° 71° (ENE) 11:08:02 437.445
AISAT 22 Jan 11:14:32 11:17:48 20° 94° (E) 11:21:03 437.250
JAS-2 22 Jan 11:14:56 11:19:27 27° 267° (W) 11:24:21 435.910
50 SAT 22 Jan 11:22:13 11:24:15 14° 93° (E) 11:26:15 437.505
QB50P1 22 Jan 11:35:25 11:39:03 29° 264° (W) 11:42:43 145.935-145.965
POLYITAN 1 22 Jan 11:40:30 11:43:58 25° 264° (W) 11:47:28 437.675
QB50P2 22 Jan 11:41:59 11:45:20 23° 265° (W) 11:48:42 145.880/145.840
ESTCUBE 1 22 Jan 11:45:06 11:49:37 69° 286° (WNW) 11:54:05 437.505/2401.250
CUSAT 1 22 Jan 11:45:19 11:49:08 14° 56° (ENE) 11:52:49 437.405
VELOX 1 22 Jan 11:47:05 11:51:17 43° 99° (E) 11:55:27 145.980
SPROUT 22 Jan 11:59:30 12:03:35 44° 99° (E) 12:07:40 437.525
POPSAT HIP 1 22 Jan 12:04:01 12:06:26 15° 268° (W) 12:08:52 437.405
AO-7 22 Jan 12:05:30 12:08:11 12° 42° (NE) 12:10:51 29.400- 29.500
UKube-1 22 Jan 12:07:07 12:10:38 24° 95° (E) 12:14:07 .
BY70-1 22 Jan 12:10:49 12:11:25 10° 296° (WNW) 12:12:00 436.1900
DX 1 22 Jan 12:12:00 12:16:03 37° 98° (E) 12:20:05 434.975-435.025
DUCHIFAT 1 22 Jan 12:12:16 12:14:28 14° 268° (W) 12:16:40 145.980
Oscar 19 22 Jan 12:16:03 12:21:09 59° 72° (ENE) 12:26:17 437.125/150
NANOSAT C BR1 22 Jan 12:20:26 12:21:19 11° 270° (W) 12:22:12 145.865
AIST 1 22 Jan 12:22:09 12:24:12 13° 85° (E) 12:26:15
Cosmos 2491 22 Jan 12:23:43 12:32:17 53° 76° (ENE) 12:40:51 435.465 / 435.565
CUBEBUG 1 22 Jan 12:28:01 12:32:03 38° 289° (WNW) 12:36:02 437.445
YUBILEINY 22 Jan 12:30:52 12:37:27 24° 80° (E) 12:44:03 435.215
BUGSAT 1 22 Jan 12:36:57 12:39:52 19° 266° (W) 12:42:47 437.445
AO-85 22 Jan 12:39:29 12:43:52 37° 116° (ESE) 12:47:58 145.980
Gurwin Techsat 1B 22 Jan 12:47:46 12:52:59 63° 73° (ENE) 12:58:15 435.225
AISAT 22 Jan 12:50:21 12:54:21 35° 290° (WNW) 12:58:20 437.250
50 SAT 22 Jan 12:54:22 12:57:33 31° 289° (WNW) 13:00:42 437.505
DANDE 22 Jan 12:55:21 13:00:34 18° 63° (ENE) 13:05:58 436.750
ITAMSAT 1 22 Jan 13:05:34 13:09:12 20° 63° (ENE) 13:12:49 435.822/435.867
